Wind_Speed
61 61 61 61 61 61 60 59 58 56 54 52 49 47 44 43 43 41 39 38 36 35 33 32 30 28 27 26 24 23 22 22 23 25 27 28 28 29 28 28 29 28 28
65 65 66 66 66 66 65 65 64 63 61 57 54 52 50 47 45 44 42 40 39 37 35 33 31 29 28 26 24 23 22 21 21 23 25 27 28 29 29 29 29 29 29
70 70 70 70 69 69 68 67 67 66 64 62 59 56 54 52 50 47 45 42 41 39 37 35 32 29 28 26 24 22 21 20 19 21 24 26 28 29 29 30 30 29 29
76 76 76 75 75 74 73 71 70 69 68 66 64 61 57 54 53 51 49 46 44 42 39 36 33 30 28 26 24 22 20 19 18 20 22 24 26 27 28 29 28 28 27
73 75 77 80 81 80 80 79 78 77 75 72 70 67 64 62 58 56 55 52 49 45 42 37 33 30 28 26 24 21 19 18 18 19 21 23 24 25 25 26 26 25 25
49 48 50 54 60 66 72 76 79 80 81 80 77 75 71 68 65 61 58 55 52 48 43 38 34 31 28 26 23 21 19 18 18 19 21 22 22 23 23 24 24 26 26
35 34 34 34 34 35 39 46 54 62 70 75 78 78 75 72 68 63 59 55 51 48 45 40 36 32 29 26 24 21 19 18 17 18 18 19 20 21 23 23 24 26 25
41 41 41 39 36 34 33 32 33 35 41 49 57 64 68 69 68 66 60 55 51 48 45 42 37 34 31 27 24 21 20 18 18 18 17 18 20 22 24 25 25 25 23
45 45 44 43 41 39 36 34 34 34 34 34 37 43 50 56 61 62 61 57 51 48 43 40 37 35 32 28 25 22 20 19 18 18 18 19 20 22 25 26 25 24 21
49 48 47 46 45 43 42 40 38 37 35 34 32 32 35 42 48 53 55 54 50 48 45 41 38 36 34 31 27 25 22 20 19 19 19 20 21 22 24 24 23 21 18
51 50 49 48 47 46 45 43 40 39 37 35 33 31 30 33 41 47 50 50 49 47 44 42 40 38 36 33 30 27 24 21 20 20 19 19 20 20 21 21 21 19 18
52 51 50 48 48 47 45 43 41 39 38 36 34 32 31 30 34 43 50 52 49 47 46 44 42 39 37 35 32 29 26 23 21 20 19 19 19 18 18 18 18 16 15
52 50 49 47 45 44 42 41 40 38 37 35 34 31 30 30 33 39 47 54 51 47 47 45 43 41 39 36 34 31 27 24 22 20 19 19 19 19 19 18 18 17 16
48 46 44 43 41 39 38 38 37 36 35 33 32 30 29 28 31 36 43 53 52 46 46 45 44 42 40 37 35 31 27 24 22 21 20 20 20 20 19 18 18 17 17
44 42 39 37 35 34 33 33 32 31 31 30 29 28 26 26 27 31 40 50 53 46 45 45 43 40 37 35 33 29 26 24 22 21 21 21 21 20 20 19 19 18 17
37 35 32 31 30 29 28 28 27 27 27 27 26 24 22 22 24 28 37 47 52 46 43 45 42 38 36 33 30 28 26 24 23 23 22 23 22 22 21 20 19 19 17
29 27 25 24 23 23 23 23 23 24 25 25 24 22 20 19 20 25 32 42 50 45 41 42 40 37 34 31 28 27 25 25 24 24 23 23 23 22 21 20 19 18 16
21 20 17 15 14 15 16 18 20 21 22 22 20 18 17 17 18 22 28 37 43 41 38 39 37 35 32 29 27 26 25 25 25 24 24 24 23 22 21 20 19 17 16
18 15 11 7 5 8 12 15 18 19 19 18 16 15 15 16 19 22 27 35 37 37 37 36 35 32 30 27 26 25 25 26 25 25 25 24 22 21 20 19 18 16 16
18 14 10 5 5 9 13 16 19 19 18 17 16 16 17 18 22 25 28 33 35 34 34 33 32 30 28 27 26 26 27 26 25 25 24 22 21 20 19 18 17 16 16
20 17 15 13 12 14 16 18 19 19 18 17 16 17 19 21 24 27 30 33 33 32 31 31 30 29 28 27 28 27 27 26 24 23 21 20 20 19 18 17 16 16 16
23 20 17 15 15 15 16 17 17 17 17 17 17 19 20 23 26 29 32 33 31 30 29 28 27 27 27 28 27 25 24 23 21 20 19 19 18 18 17 16 16 16 18
27 23 19 15 13 12 13 14 16 16 17 19 20 20 21 24 27 30 32 33 30 28 27 26 26 26 26 26 24 22 21 20 19 18 18 18 17 17 16 16 17 18 19
31 28 24 20 17 14 14 15 16 18 19 21 22 23 24 26 28 31 33 31 28 26 25 25 24 23 23 22 21 20 18 17 17 16 17 17 16 16 17 17 18 19 19
37 34 31 27 25 23 22 21 21 23 24 25 26 26 26 27 29 31 30 28 26 26 25 23 22 21 20 19 18 17 16 15 15 16 16 16 16 17 18 18 19 19 20
38 37 36 34 32 31 30 29 29 29 29 28 28 28 29 29 29 28 27 26 25 24 23 21 19 18 16 16 15 14 14 14 15 15 16 17 17 18 19 20 20 21 21
Wind_Direction
279 278 276 275 273 272 270 269 268 267 265 264 263 263 264 266 267 267 267 268 268 270 274 280 288 296 302 307 309 307 299 284 267 257 251 248 248 251 254 256 260 263 265
278 276 275 273 272 271 270 269 268 267 266 264 262 260 260 261 263 263 263 264 264 265 269 275 282 290 296 303 307 307 301 289 271 258 250 247 247 250 253 257 261 263 265
277 275 273 272 271 269 268 267 266 265 265 264 263 261 258 258 259 260 260 260 260 261 264 270 276 283 291 298 304 305 302 292 274 257 250 247 248 250 254 258 261 263 264
277 274 271 269 268 267 266 266 265 264 263 263 262 261 259 257 257 258 258 258 258 257 259 264 270 278 285 293 299 302 299 292 276 259 252 250 250 252 255 258 259 261 259
279 275 271 268 266 265 264 263 263 263 262 262 261 261 260 260 258 257 258 258 257 255 255 259 265 272 280 287 292 296 292 287 276 262 255 253 254 254 255 255 255 254 254
290 287 282 277 272 269 266 264 263 262 261 260 260 260 260 261 260 259 258 257 255 251 250 253 259 267 273 278 284 289 287 280 271 261 255 255 254 251 252 252 253 251 249
299 297 295 291 287 282 277 272 268 265 262 261 260 260 259 259 258 258 256 254 251 247 247 250 255 261 266 271 276 281 281 275 268 259 254 252 251 253 251 249 248 245 241
295 293 291 289 287 285 283 281 278 275 270 264 260 258 257 256 255 254 251 249 248 244 243 245 250 255 260 265 269 272 275 273 264 258 254 252 249 252 247 243 242 241 239
294 291 289 287 285 282 281 281 279 279 277 273 266 260 255 251 249 247 245 244 243 241 240 242 246 251 255 259 262 264 266 266 261 257 253 251 248 249 250 245 241 237 228
293 290 286 284 281 279 278 276 275 274 275 274 271 266 258 248 241 237 238 238 237 238 238 241 244 249 251 254 257 258 259 259 259 256 253 250 251 254 253 246 238 227 219
292 289 286 282 279 277 275 273 270 269 268 268 267 266 260 248 235 227 224 223 224 230 231 234 240 245 246 249 252 253 254 254 252 251 249 246 248 248 244 235 226 217 210
291 288 285 282 279 277 274 270 267 265 262 261 263 262 259 250 235 225 216 212 214 221 223 227 231 236 241 243 246 249 250 249 246 245 244 243 240 233 227 221 216 209 203
291 288 284 281 279 275 271 267 263 260 257 255 256 256 254 247 238 227 216 208 207 212 217 221 224 229 234 237 240 243 244 243 241 240 237 233 228 224 219 215 207 199 197
291 289 285 282 277 273 268 264 260 255 250 247 247 247 248 245 239 230 217 208 201 202 209 215 219 223 227 231 235 237 237 236 235 232 227 224 221 217 213 205 198 197 198
293 290 286 280 275 269 264 260 254 248 241 237 237 239 242 242 238 229 215 207 200 196 201 209 214 217 221 225 228 230 230 228 226 222 219 216 212 207 202 198 199 200 202
297 292 286 280 273 267 261 253 243 235 230 228 229 231 236 236 233 226 215 206 200 195 198 203 207 211 215 218 221 222 222 220 217 213 211 207 204 201 200 201 204 204 206
303 298 291 282 271 261 251 240 230 226 222 220 222 225 228 224 218 214 208 202 200 195 195 198 200 205 209 212 214 214 213 211 209 205 202 200 198 199 201 204 206 209 213
318 312 303 288 268 249 233 220 214 211 209 208 210 213 212 208 200 198 198 194 196 195 195 195 196 199 201 204 206 206 204 203 201 198 196 195 196 199 203 207 210 214 221
344 337 327 306 251 209 194 190 189 188 187 188 191 192 187 182 176 176 183 185 188 190 192 190 190 192 194 196 196 194 191 190 189 188 190 193 197 202 207 211 216 222 231
13 18 30 59 116 146 158 163 167 168 168 170 171 171 166 160 159 165 171 177 182 184 185 185 185 186 187 187 186 184 182 182 183 185 190 196 201 207 212 217 224 232 241
34 42 55 75 102 125 140 149 154 158 159 161 160 158 156 151 152 156 163 169 174 176 177 179 181 182 183 181 180 179 180 182 185 188 195 201 206 211 217 224 233 242 252
45 54 64 79 99 118 134 145 152 156 159 159 155 152 148 147 150 152 158 164 167 167 169 174 177 179 179 179 179 181 184 186 190 194 201 207 212 217 224 232 241 252 261
47 52 62 75 94 115 134 146 152 155 157 158 153 148 148 148 150 152 154 157 160 162 166 171 174 176 177 179 181 185 188 191 195 201 207 212 218 225 232 241 250 259 266
52 55 60 69 81 99 118 135 143 147 150 152 150 146 147 148 149 151 153 155 158 161 165 167 170 172 175 179 184 189 192 197 203 209 214 220 226 233 240 248 255 262 268
57 59 63 70 79 88 99 111 122 131 136 139 140 141 143 146 147 150 153 155 157 159 161 163 165 168 173 181 188 195 201 207 213 218 223 229 235 241 246 251 258 264 269
58 61 65 71 78 85 91 99 107 115 122 126 130 134 138 140 142 145 149 151 154 156 158 161 164 170 179 188 194 200 206 214 221 227 234 239 243 247 251 255 259 264 269
Height
5741 5739 5738 5738 5738 5738 5739 5739 5740 5741 5743 5745 5746 5747 5749 5750 5750 5751 5752 5753 5753 5753 5753 5752 5750 5748 5746 5743 5741 5738 5737 5736 5737 5738 5741 5744 5746 5749 5752 5754 5756 5758 5760
5723 5722 5720 5719 5719 5719 5720 5721 5721 5723 5724 5727 5730 5732 5735 5737 5738 5739 5741 5742 5743 5744 5744 5744 5743 5741 5739 5737 5735 5732 5730 5729 5730 5731 5733 5736 5738 5741 5744 5746 5748 5750 5752
5703 5701 5700 5699 5698 5698 5699 5700 5701 5703 5705 5708 5711 5715 5719 5722 5724 5727 5728 5730 5732 5734 5735 5735 5735 5734 5732 5730 5728 5726 5724 5723 5723 5724 5726 5728 5730 5733 5736 5738 5740 5742 5744
5679 5677 5676 5675 5675 5676 5677 5678 5679 5682 5684 5687 5691 5695 5700 5705 5709 5712 5715 5718 5721 5723 5725 5726 5726 5725 5725 5723 5721 5719 5718 5717 5718 5719 5720 5722 5724 5726 5729 5731 5733 5735 5737
5651 5650 5648 5648 5648 5649 5651 5653 5656 5659 5662 5666 5670 5675 5680 5685 5691 5696 5700 5703 5707 5711 5714 5716 5717 5717 5716 5715 5714 5713 5712 5712 5713 5714 5715 5717 5718 5720 5722 5724 5726 5729 5731
5628 5625 5623 5622 5621 5623 5624 5627 5630 5633 5637 5642 5647 5653 5659 5665 5671 5677 5683 5688 5693 5698 5702 5705 5707 5708 5708 5708 5707 5707 5707 5707 5708 5709 5710 5711 5713 5715 5717 5719 5721 5723 5725
5616 5613 5610 5608 5606 5604 5604 5604 5606 5608 5612 5617 5622 5629 5636 5644 5651 5659 5666 5672 5677 5683 5689 5693 5696 5698 5699 5700 5700 5700 5701 5701 5703 5704 5705 5706 5708 5710 5712 5713 5715 5718 5720
5605 5602 5599 5596 5595 5594 5593 5592 5591 5591 5592 5595 5599 5605 5612 5621 5630 5640 5648 5655 5662 5669 5675 5680 5685 5688 5690 5692 5693 5694 5695 5696 5697 5698 5700 5701 5703 5705 5707 5709 5711 5713 5716
5591 5588 5585 5583 5581 5580 5580 5580 5580 5579 5580 5580 5582 5585 5591 5598 5608 5618 5629 5638 5646 5654 5661 5667 5673 5678 5681 5683 5685 5687 5688 5690 5691 5693 5695 5697 5698 5700 5702 5704 5706 5709 5711
5576 5573 5570 5568 5567 5566 5566 5566 5566 5567 5568 5568 5570 5572 5574 5580 5587 5598 5608 5620 5631 5639 5647 5655 5662 5667 5672 5675 5677 5680 5682 5684 5686 5688 5690 5692 5694 5696 5698 5701 5703 5705 5707
5559 5556 5553 5551 5550 5550 5550 5551 5552 5553 5555 5557 5559 5561 5563 5566 5571 5581 5591 5603 5614 5624 5633 5642 5650 5656 5662 5666 5669 5672 5675 5677 5679 5682 5684 5687 5689 5692 5694 5696 5698 5701 5703
5541 5537 5535 5533 5532 5532 5533 5534 5536 5538 5541 5544 5546 5549 5552 5555 5559 5566 5576 5588 5600 5610 5620 5629 5637 5645 5652 5657 5661 5664 5667 5670 5673 5676 5679 5682 5685 5687 5690 5692 5695 5698 5701
5521 5518 5516 5514 5514 5514 5515 5517 5520 5523 5527 5531 5534 5538 5541 5544 5548 5554 5563 5575 5586 5597 5607 5617 5626 5634 5642 5648 5653 5657 5660 5663 5667 5670 5674 5677 5680 5683 5685 5689 5692 5696 5699
5502 5499 5497 5496 5496 5497 5499 5501 5505 5509 5513 5518 5522 5527 5531 5534 5537 5543 5551 5562 5574 5585 5595 5605 5615 5624 5632 5639 5645 5649 5653 5657 5661 5665 5669 5672 5675 5679 5683 5686 5690 5693 5697
5485 5482 5480 5480 5480 5482 5484 5487 5491 5496 5501 5507 5513 5517 5522 5525 5529 5534 5540 5551 5563 5574 5585 5595 5606 5616 5624 5631 5637 5642 5647 5651 5655 5660 5664 5668 5672 5676 5680 5683 5687 5691 5694
5469 5467 5465 5465 5466 5468 5471 5475 5479 5486 5492 5498 5505 5510 5514 5518 5521 5526 5533 5543 5554 5566 5577 5587 5598 5608 5617 5624 5630 5636 5640 5645 5650 5655 5659 5664 5668 5673 5677 5681 5685 5688 5691
5458 5456 5454 5453 5455 5457 5461 5466 5472 5478 5485 5492 5499 5504 5509 5512 5516 5521 5528 5537 5550 5561 5572 5582 5593 5602 5611 5618 5624 5630 5635 5640 5645 5650 5655 5660 5665 5670 5674 5678 5682 5685 5688
5451 5448 5446 5446 5447 5450 5454 5460 5466 5474 5481 5488 5495 5500 5505 5509 5513 5518 5526 5536 5548 5560 5570 5580 5589 5598 5606 5614 5620 5625 5630 5636 5641 5646 5652 5658 5663 5667 5672 5675 5678 5681 5683
5449 5446 5444 5443 5444 5447 5452 5458 5465 5473 5480 5487 5493 5499 5504 5508 5512 5518 5526 5538 5549 5560 5569 5578 5586 5595 5603 5610 5616 5622 5627 5633 5639 5644 5650 5655 5660 5664 5668 5672 5674 5677 5679
5452 5449 5446 5446 5447 5450 5455 5461 5468 5475 5483 5489 5495 5500 5504 5509 5514 5521 5530 5540 5551 5561 5570 5578 5586 5593 5601 5608 5614 5620 5626 5631 5637 5642 5648 5653 5657 5661 5665 5668 5670 5672 5674
5459 5456 5454 5454 5455 5458 5462 5467 5473 5480 5486 5492 5497 5502 5507 5512 5518 5525 5534 5544 5554 5563 5571 5578 5586 5593 5600 5607 5614 5619 5625 5631 5636 5641 5646 5650 5654 5658 5661 5664 5666 5667 5669
5469 5466 5464 5464 5465 5467 5470 5474 5479 5485 5490 5496 5501 5507 5512 5517 5524 5531 5539 5549 5557 5566 5573 5580 5588 5595 5601 5608 5614 5620 5625 5630 5635 5639 5644 5648 5651 5654 5657 5659 5661 5662 5663
5480 5476 5474 5473 5473 5474 5477 5480 5484 5489 5495 5500 5506 5512 5517 5523 5530 5538 5546 5554 5562 5569 5576 5583 5590 5596 5602 5609 5614 5620 5625 5629 5634 5638 5641 5645 5648 5650 5653 5654 5656 5656 5657
5492 5488 5485 5483 5482 5482 5483 5486 5490 5495 5500 5505 5512 5518 5524 5530 5537 5544 5552 5559 5566 5573 5579 5586 5592 5598 5604 5610 5615 5620 5624 5629 5632 5636 5639 5642 5644 5646 5648 5649 5650 5650 5651
5507 5502 5498 5495 5493 5492 5493 5494 5497 5501 5506 5512 5518 5525 5531 5537 5544 5551 5558 5565 5571 5577 5583 5589 5595 5601 5606 5611 5615 5620 5624 5627 5631 5633 5636 5638 5640 5641 5643 5643 5644 5644 5645
5523 5518 5514 5510 5508 5507 5507 5508 5510 5513 5518 5523 5528 5534 5540 5546 5553 5559 5565 5571 5576 5582 5587 5592 5597 5602 5607 5611 5615 5619 5622 5625 5628 5630 5632 5634 5636 5637 5638 5638 5638 5639 5638